CDT,Max TemperatureF,Mean TemperatureF,Min TemperatureF,Max Dew PointF,MeanDew PointF,Min DewpointF,Max Humidity, Mean Humidity, Min Humidity, Max Sea Level PressureIn, Mean Sea Level PressureIn, Min Sea Level PressureIn, Max VisibilityMiles, Mean VisibilityMiles, Min VisibilityMiles, Max Wind SpeedMPH, Mean Wind SpeedMPH, Max Gust SpeedMPH,PrecipitationIn, CloudCover, Events, WindDirDegrees
2013-9-1,88,78,67,76,69,62,99,81,48,29.89,29.82,29.80,10,6,0,10,3,,0.00,3,Fog,291
2013-9-2,81,69,56,64,60,53,94,73,49,30.00,29.95,29.89,10,10,10,10,5,16,0.00,0,,320
2013-9-3,79,64,50,61,56,50,98,77,44,30.12,30.07,30.01,10,9,0,6,0,,0.00,1,Fog,180
2013-9-4,83,67,51,63,56,50,97,70,34,30.18,30.14,30.09,10,9,2,6,0,,0.00,0,,243
2013-9-5,85,70,55,66,59,54,95,72,39,30.22,30.18,30.15,10,10,10,0,0,,0.00,0,,-1
2013-9-6,85,72,58,66,61,57,96,71,42,30.20,30.14,30.05,10,10,5,8,0,,0.00,0,,187
2013-9-7,89,76,64,69,64,60,90,68,40,30.06,30.00,29.92,10,10,10,12,1,17,0.00,0,Rain,217
2013-9-8,83,76,70,72,69,64,97,79,61,30.02,29.94,29.90,10,9,1,17,2,23,1.66,1,Rain-Thunderstorm,160
2013-9-9,91,82,73,76,72,66,94,75,52,29.97,29.93,29.90,10,9,5,12,2,17,0.00,1,,206
2013-9-10,92,82,72,71,67,63,80,64,37,30.09,30.05,29.97,10,10,10,14,1,21,0.00,0,,216
2013-9-11,91,80,68,69,66,63,86,63,40,30.13,30.08,30.02,10,10,10,13,1,17,0.00,0,,230
2013-9-12,81,70,58,69,62,50,96,75,37,30.11,30.07,30.02,10,10,3,16,4,21,0.68,2,Rain-Thunderstorm,304
2013-9-13,70,60,50,54,49,40,92,69,33,30.19,30.14,30.11,10,10,10,14,3,18,0.00,1,,15
2013-9-14,72,58,43,49,45,40,97,68,32,30.20,30.13,30.05,10,10,7,9,1,,0.00,0,,122
2013-9-15,75,66,57,64,54,46,94,71,51,30.16,30.05,29.99,10,10,4,14,6,20,0.00,4,Rain,178
2013-9-16,69,60,52,57,54,50,94,80,59,30.32,30.26,30.17,10,10,7,14,7,18,0.00,5,,61
2013-9-17,73,61,50,63,56,49,96,83,63,30.29,30.20,30.10,10,10,7,12,5,,0.00,3,Rain,120
2013-9-18,85,72,60,70,65,57,94,78,56,30.10,30.02,29.95,10,9,5,15,7,22,0.01,2,Rain,161
2013-9-19,90,80,69,70,68,66,91,71,49,29.98,29.93,29.84,10,10,7,20,9,31,0.03,0,Rain,189
2013-9-20,70,62,53,68,61,51,97,85,61,29.94,29.91,29.89,10,9,2,13,6,18,0.02,3,Rain,267
2013-9-21,70,60,49,52,49,46,96,76,43,29.98,29.94,29.91,10,10,10,13,6,18,0.00,0,,311
2013-9-22,72,58,43,52,48,42,98,75,42,30.06,29.99,29.96,10,10,2,8,1,,0.00,0,,101
2013-9-23,75,59,43,52,48,42,97,71,37,30.07,30.01,29.96,10,9,2,13,6,21,0.00,0,,110
2013-9-24,78,62,46,60,55,45,96,76,50,29.99,29.91,29.85,10,10,10,13,7,,0.01,2,Rain-Thunderstorm,103
2013-9-25,82,68,55,62,59,55,97,77,46,29.91,29.88,29.85,10,10,4,12,5,,0.00,1,,58
2013-9-26,83,68,53,64,58,53,96,73,40,30.04,29.99,29.91,10,9,4,9,6,,0.00,0,,120
2013-9-27,82,67,52,62,54,50,93,66,35,30.13,30.07,30.03,10,10,10,12,6,17,0.00,0,,135
2013-9-28,83,70,58,68,60,54,96,71,48,30.05,30.00,29.93,10,10,7,20,8,30,0.06,3,Rain,169
2013-9-29,72,60,47,57,50,40,99,75,32,30.10,30.05,30.01,10,9,0,10,6,,0.00,2,Fog,345
2013-9-30,77,60,42,61,51,41,95,73,40,30.00,29.95,29.90,10,10,4,12,3,18,0.00,0,,156